STARLINK-1548, 46054

Orbit data source: Space-Track

STARLINK-1548, 46054 is a payload satellite owned by SpaceX/Seattle (US) in LEO that was launched on Fri, 07 Aug 2020 UTC via an FALCON 9 launch vehicle from the Air Force Eastern Test Range (AFETR). Payload-class satellites include a variety of spacecraft equipped with specific instruments for various scientific and technological missions. These include communications satellites like Starlink; space stations such as the ISS; scientific satellites like the Hubble; Earth observation satellites from companies like Planet Labs, Umbra, and HawkEye 360; GPS; miniature CubeSats for education and research; and military/defense satellites.

Loading next visibility...
Identifier
46054, 2020-055AD
Orbit
LEO
Country
Flag of USUS
Related business
Manufacturer
SpaceX/Seattle
Mission
Operational Commercial Communications
Bus & Motor
STARLINK, Unknown motor
Mass
260 kg wet, ~248 kg dry
Launch date (UTC)
2020-08-07 (6 years ago)
Launch vehicle
FALCON 9
Launch site
Air Force Eastern Test Range (AFETR)
Object type
Payload
Rocket body
Debris
Shape & HBR
Box + 1 Pan, 10.1 m
Radar Cross Section
13.562 m², Large (>1 m²)

Expand to show TLE details & history
Last TLE update: 9 hours ago

TLE from 9 hours ago
0 STARLINK-1548
1 46054U 20055AD  26125.63406137  .00002379  00000-0  88398-4 0  9998
2 46054  53.1596 209.3274 0001351  89.3650 270.7506 15.31703703317792
Epoch: 2026-05-05T15:13Z
TLE epoch observation values (Epoch: 2026-05-05T15:13:02.902Z)
Latitude
-0.00003°
Longitude
117.55919°
Altitude
471.617 km
Speed
7.631 km/s
True Right ascension
13h 57m 18s
True Declination
0° 00' 00"
Sunlit
Object was in full shadow at epoch
Visualization orbit readout
Latitude
Unknown
Longitude
Unknown
Altitude
Unknown
Speed
Unknown
Apparent Right ascension
Unknown
Apparent Declination
Unknown
Sunlit
N/A
Visualization observer readout
Local Sidereal Time
08:06:51
Azimuth
Unknown
Elevation
Unknown
Doppler factor
Unknown
Orbital elements
Apogee altitude
471.911 km
Perigee altitude
470.06 km
Semi-major axis
6,849.123 km
Eccentricity
0.00014
Inclination
53.1596°
RAAN
209.3274°
Arg. of periapsis
89.365°
True anomaly
270.73512°
Mean anomaly
270.7506°
Eccentric anomaly
270.74286°
Mean motion
3.82905 °/min
Orbital period
94.02 mins
BSTAR
0.000088398
Loading maneuver chart data...
Computing Atmospheric mass density...
Loading historical data...
Loading historical data...
Loading historical data...
Loading historical data...
Loading historical data...
Loading historical data...
Loading historical data...

Documentation

Showing up to 5 results
|